This is the latest recevied weather packets stored in our database for station/object W8RSN-13. If no packets are shown the sender has not sent any weather packets the latest 10 day(s).
| Time | Temp. | Humidity | Pressure | Rain* | Wind** | Luminosity | Snow |
|---|---|---|---|---|---|---|---|
| 1787556198 | 25° C | 50% | 1015.6 hPa | - | - | - | - |
| 1787555898 | 24.44° C | 51% | 1015.6 hPa | - | - | - | - |
| 1787555597 | 24.44° C | 51% | 1015.8 hPa | - | - | - | - |
| 1787555296 | 25° C | 49% | 1015.3 hPa | - | - | - | - |
| 1787555015 | 25° C | 49% | 1015.3 hPa | - | - | - | - |
| 1787554714 | 25° C | 49% | 1015.5 hPa | - | - | - | - |
| 1787554414 | 25.56° C | 46% | 1015.6 hPa | - | - | - | - |
| 1787554113 | 26.11° C | 45% | 1015.4 hPa | - | - | - | - |
| 1787553812 | 25.56° C | 46% | 1015.5 hPa | - | - | - | - |
| 1787553511 | 26.11° C | 46% | 1015.5 hPa | - | - | - | - |
| 1787553210 | 25.56° C | 47% | 1015.4 hPa | - | - | - | - |
| 1787552909 | 25.56° C | 48% | 1015.2 hPa | - | - | - | - |
| 1787552608 | 26.11° C | 46% | 1015.4 hPa | - | - | - | - |
| 1787552307 | 26.11° C | 46% | 1015.5 hPa | - | - | - | - |
| 1787552006 | 26.11° C | 46% | 1015.5 hPa | - | - | - | - |
| 1787551705 | 26.11° C | 46% | 1015.5 hPa | - | - | - | - |
| 1787551405 | 26.67° C | 45% | 1015.7 hPa | - | - | - | - |
| 1787551104 | 26.67° C | 46% | 1015.5 hPa | - | - | - | - |
| 1787550803 | 27.22° C | 45% | 1015.3 hPa | - | - | - | - |
| 1787550502 | 27.22° C | 45% | 1015.7 hPa | - | - | - | - |
| 1787550201 | 27.22° C | 45% | 1016 hPa | - | - | - | - |
| 1787549900 | 27.22° C | 45% | 1015.8 hPa | - | - | - | - |
| 1787549599 | 27.22° C | 44% | 1015.7 hPa | - | - | - | - |
| 1787549298 | 27.22° C | 43% | 1015.5 hPa | - | - | - | - |
| 1787548997 | 27.22° C | 43% | 1015.6 hPa | - | - | - | - |
* Rain since midnight (hover to see other rain measurements)
** Current wind speed in m/s (hover to see current wind gust speed)